Overview Statistics Trail Chart Weather Telemetry Raw packets
 

This is the latest recevied weather packets stored in our database for station/object KR0L-13. If no packets are shown the sender has not sent any weather packets the latest 10 day(s).

<< 44 45 46 47 48 49 50 >>
Time Temp. Humidity Pressure Rain* Wind** Luminosity Snow
1787985921 23.33° C 54% 1017.5 hPa 0 mm - - -
1787985321 23.33° C 53% 1017.6 hPa 0 mm - - -
1787984721 23.89° C 53% 1017.7 hPa 0 mm - - -
1787984130 23.89° C 52% 1017.6 hPa 0 mm - - -
1787983521 24.44° C 51% 1017.7 hPa 0 mm - - -
1787982921 24.44° C 50% 1017.6 hPa 0 mm - - -
1787982321 25° C 49% 1017.5 hPa 0 mm - - -
1787981721 25.56° C 48% 1017.5 hPa 0 mm - - -
1787981121 25.56° C 47% 1017.5 hPa 0 mm - - -
1787980521 25.56° C 47% 1017.5 hPa 0 mm - - -
1787979921 26.11° C 47% 1017.5 hPa 0 mm - - -
1787979321 26.11° C 47% 1017.5 hPa 0 mm - - -
1787978721 26.11° C 47% 1017.4 hPa 0 mm - - -
1787978121 26.11° C 48% 1017.6 hPa 0 mm - - -
1787977521 26.11° C 47% 1017.5 hPa 0 mm - - -
1787976921 26.11° C 47% 1017.4 hPa 0 mm - - -
1787976321 26.11° C 48% 1017.4 hPa 0 mm - - -
1787975721 26.11° C 50% 1017.4 hPa 0 mm - - -
1787975121 25.56° C 50% 1017.3 hPa 0 mm - - -
1787974521 26.11° C 49% 1017.3 hPa 0 mm - - -
1787973921 26.67° C 48% 1017.3 hPa 0 mm - - -
1787973321 26.67° C 46% 1017.2 hPa 0 mm - - -
1787972721 26.67° C 46% 1017.2 hPa 0 mm - - -
1787972121 27.22° C 44% 1017.2 hPa 0 mm - - -
1787971521 27.78° C 41% 1017.1 hPa 0 mm - - -

* Rain latest hour (hover to see other rain measurements)
** Current wind speed in m/s (hover to see current wind gust speed)